FW6622 Weather Reports


time (UTC)temp
C
wind
direction
speed
KPH
gust
KPH
rain 1hr
cm
rain 24hr
cm
rain mn
cm
humidity
%
barometer
mb
20260505113055 12 51 6.4 20.9 0.00 0.66 0.00 72 1010.8
20260505111552 12 232 8.0 20.9 0.00 0.66 0.00 73 1010.1
20260505101544 12 175 6.4 22.5 0.00 0.66 0.00 75 1009.9
20260505100044 13 196 9.7 32.2 0.00 0.66 0.00 76 1009.5
20260505094544 13 128 8.0 22.5 0.00 0.66 0.00 77 1009.2
20260505093043 14 113 8.0 17.7 0.00 0.66 0.00 78 1009.2
20260505091538 15 188 6.4 19.3 0.00 0.66 0.00 76 1008.7
20260505090047 16 276 6.4 19.3 0.00 0.66 0.00 74 1008.7
20260505084545 17 115 4.8 16.1 0.00 0.66 0.00 77 1008.5
20260505083045 17 136 3.2 19.3 0.00 0.66 0.00 77 1008.1
20260505081550 18 140 3.2 8.0 0.00 0.66 0.00 79 1008.0
20260505080047 19 0 1.6 14.5 0.00 0.66 0.00 78 1007.8
20260505074549 19 264 3.2 11.3 0.00 0.66 0.00 77 1007.5
20260505073049 19 242 11.3 20.9 0.00 0.66 0.00 76 1007.2
20260505071551 20 262 4.8 14.5 0.00 0.66 0.00 77 1007.0
20260505070043 19 269 3.2 16.1 0.00 0.66 0.00 79 1006.9
20260505064559 19 267 4.8 17.7 0.00 0.66 0.00 80 1007.1
20260505063041 19 284 6.4 12.9 0.00 0.66 0.00 80 1007.1
20260505061548 18 290 4.8 17.7 0.00 0.66 0.00 80 1007.0
20260505060049 19 282 8.0 20.9 0.00 0.66 0.00 78 1007.0
20260505054554 18 257 6.4 20.9 0.00 0.66 0.00 79 1007.2
20260505053056 18 278 6.4 16.1 0.00 0.66 0.00 79 1007.4
20260505051545 18 277 4.8 17.7 0.00 0.66 0.00 79 1007.3
20260505041546 17 262 3.2 9.7 0.46 0.66 0.66 84 1007.8
20260505040045 16 254 3.2 8.0 0.51 0.66 0.66 84 1007.9
20260505034540 17 301 6.4 19.3 0.61 0.66 0.66 84 1007.8
20260505033048 17 279 3.2 17.7 0.43 0.43 0.43 79 1008.3
20260505031546 20 325 4.8 14.5 0.20 0.20 0.20 82 1007.7
20260505030100 20 0 1.6 19.3 0.13 0.13 0.13 80 1008.4
20260505024545 21 346 4.8 12.9 0.03 0.03 0.03 74 1008.3
20260505023047 22 16 1.6 12.9 0.00 0.00 0.00 68 1007.5
20260505021540 22 304 4.8 11.3 0.00 0.00 0.00 67 1007.3
20260505020047 22 271 3.2 12.9 0.00 0.00 0.00 67 1007.6
20260505014546 22 284 3.2 14.5 0.00 0.00 0.00 66 1007.0
20260505013043 22 272 3.2 11.3 0.00 0.00 0.00 64 1007.2
20260505011550 23 278 3.2 12.9 0.00 0.00 0.00 63 1006.7
20260505010058 23 258 3.2 9.7 0.00 0.00 0.00 62 1006.7
20260505004549 23 313 3.2 11.3 0.00 0.00 0.00 60 1006.5
20260505003043 24 297 3.2 11.3 0.00 0.00 0.00 58 1006.6
20260505001550 25 292 3.2 9.7 0.00 0.00 0.00 56 1006.7
20260505000042 25 295 3.2 16.1 0.00 0.00 0.00 53 1006.7
20260504234542 25 292 3.2 17.7 0.00 0.00 0.00 53 1006.8
20260504233045 26 291 3.2 17.7 0.00 0.00 0.00 50 1007.0
20260504231544 26 329 3.2 16.1 0.00 0.00 0.00 48 1007.2
20260504230043 27 327 4.8 17.7 0.00 0.00 0.00 46 1007.3
20260504224542 27 279 4.8 16.1 0.00 0.00 0.00 45 1007.3
20260504223047 27 355 4.8 17.7 0.00 0.00 0.00 44 1007.3
20260504221545 28 344 4.8 12.9 0.00 0.00 0.00 44 1007.3
20260504220100 28 321 3.2 12.9 0.00 0.00 0.00 44 1007.4
20260504214551 28 352 6.4 16.1 0.00 0.00 0.00 44 1007.6
20260504213053 28 283 6.4 16.1 0.00 0.00 0.00 44 1007.7
20260504211551 28 105 4.8 14.5 0.00 0.00 0.00 43 1007.6
20260504210045 28 17 3.2 20.9 0.00 0.00 0.00 43 1008.1
20260504204552 28 342 4.8 14.5 0.00 0.00 0.00 43 1008.2
20260504203043 28 355 4.8 16.1 0.00 0.00 0.00 46 1008.2
20260504201547 28 284 4.8 17.7 0.00 0.00 0.00 42 1008.5
20260504200056 28 49 4.8 14.5 0.00 0.00 0.00 41 1008.4
20260504194547 28 16 4.8 14.5 0.00 0.00 0.00 42 1008.5
20260504193052 28 17 8.0 17.7 0.00 0.00 0.00 42 1008.7
20260504191556 28 19 4.8 19.3 0.00 0.00 0.00 39 1008.7
20260504190057 27 288 6.4 14.5 0.00 0.00 0.00 41 1009.0
20260504184559 28 351 4.8 16.1 0.00 0.00 0.00 42 1009.1
20260504183050 27 17 6.4 12.9 0.00 0.00 0.00 42 1009.4
20260504181550 27 9 4.8 19.3 0.00 0.00 0.00 46 1009.5
20260504180042 27 65 6.4 16.1 0.00 0.00 0.00 43 1009.7
20260504174538 26 248 6.4 16.1 0.00 0.00 0.00 45 1009.6
20260504173047 27 49 4.8 17.7 0.00 0.00 0.00 47 1009.7
20260504171544 26 21 6.4 16.1 0.00 0.00 0.00 45 1009.8